Time,TemperatureF,DewpointF,PressureIn,WindDirection,WindDirectionDegrees,WindSpeedMPH,WindSpeedGustMPH,Humidity,HourlyPrecipIn,Conditions,Clouds,dailyrainin,SolarRadiationWatts/m^2,SoftwareType,DateUTC
2013-01-28 00:22:00,42.0,36.0,-100.00,NNE,29,4.0,9.0,79,0.00,,,0.00,0.000000,,2013-01-28 05:22:00,
2013-01-28 00:32:00,42.0,36.0,-100.00,NNE,29,4.0,9.0,79,0.00,,,0.00,0.000000,,2013-01-28 05:32:00,
2013-01-28 00:42:00,42.0,36.0,-100.00,NNE,29,4.0,9.0,79,0.00,,,0.00,0.000000,,2013-01-28 05:42:00,
2013-01-28 00:52:00,42.0,36.0,-100.00,NNE,29,4.0,9.0,79,0.00,,,0.00,0.000000,,2013-01-28 05:52:00,
2013-01-28 01:22:00,43.0,36.0,-100.00,NE,34,3.0,8.0,76,0.00,,,0.00,0.000000,,2013-01-28 06:22:00,
2013-01-28 01:32:00,43.0,36.0,-100.00,NE,34,3.0,8.0,76,0.00,,,0.00,0.000000,,2013-01-28 06:32:00,
2013-01-28 01:42:00,43.0,36.0,-100.00,NE,34,3.0,8.0,76,0.00,,,0.00,0.000000,,2013-01-28 06:42:00,
2013-01-28 01:52:00,43.0,36.0,-100.00,NE,34,3.0,8.0,76,0.00,,,0.00,0.000000,,2013-01-28 06:52:00,
2013-01-28 02:22:00,42.0,36.0,-100.00,NE,38,3.0,7.0,78,0.00,,,0.00,0.000000,,2013-01-28 07:22:00,
2013-01-28 02:32:00,42.0,36.0,-100.00,NE,38,3.0,7.0,78,0.00,,,0.00,0.000000,,2013-01-28 07:32:00,
2013-01-28 02:42:00,42.0,36.0,-100.00,NE,38,3.0,7.0,78,0.00,,,0.00,0.000000,,2013-01-28 07:42:00,
2013-01-28 02:51:00,42.0,36.0,-100.00,NE,38,3.0,7.0,78,0.00,,,0.00,0.000000,,2013-01-28 07:51:00,
2013-01-28 03:21:00,42.0,36.0,-100.00,NNW,338,3.0,5.0,80,0.00,,,0.00,0.000000,,2013-01-28 08:21:00,
2013-01-28 03:32:00,42.0,36.0,-100.00,NNW,338,3.0,5.0,80,0.00,,,0.00,0.000000,,2013-01-28 08:32:00,
2013-01-28 03:42:00,42.0,36.0,-100.00,NNW,338,3.0,5.0,80,0.00,,,0.00,0.000000,,2013-01-28 08:42:00,
2013-01-28 03:52:00,42.0,36.0,-100.00,NNW,338,3.0,5.0,80,0.00,,,0.00,0.000000,,2013-01-28 08:52:00,
2013-01-28 04:22:00,42.0,37.0,-100.00,North,3,3.0,6.0,81,0.00,,,0.00,0.000000,,2013-01-28 09:22:00,
2013-01-28 04:32:00,42.0,37.0,-100.00,North,3,3.0,6.0,81,0.00,,,0.00,0.000000,,2013-01-28 09:32:00,
2013-01-28 04:42:00,42.0,37.0,-100.00,North,3,3.0,6.0,81,0.00,,,0.00,0.000000,,2013-01-28 09:42:00,
2013-01-28 04:52:00,42.0,37.0,-100.00,North,3,3.0,6.0,81,0.00,,,0.00,0.000000,,2013-01-28 09:52:00,
2013-01-28 06:22:00,44.0,39.0,-100.00,NNE,13,4.0,8.0,81,-99.99,,,0.00,0.000000,,2013-01-28 11:22:00,
2013-01-28 06:32:00,44.0,39.0,-100.00,NNE,13,4.0,8.0,81,-99.99,,,0.00,0.000000,,2013-01-28 11:32:00,
2013-01-28 06:42:00,44.0,39.0,-100.00,NNE,13,4.0,8.0,81,-99.99,,,0.00,0.000000,,2013-01-28 11:42:00,
2013-01-28 06:52:00,44.0,39.0,-100.00,NNE,13,4.0,8.0,81,-99.99,,,0.00,0.000000,,2013-01-28 11:52:00,
2013-01-28 07:23:00,44.0,39.0,-100.00,NNE,14,6.0,8.0,82,0.00,,,0.00,0.000000,,2013-01-28 12:23:00,
2013-01-28 07:33:00,44.0,39.0,-100.00,NNE,14,6.0,8.0,82,0.00,,,0.00,0.000000,,2013-01-28 12:33:00,
2013-01-28 07:42:00,44.0,39.0,-100.00,NNE,14,6.0,8.0,82,0.00,,,0.00,0.000000,,2013-01-28 12:42:00,
2013-01-28 07:52:00,44.0,39.0,-100.00,NNE,14,6.0,8.0,82,0.00,,,0.00,0.000000,,2013-01-28 12:52:00,
2013-01-28 08:23:00,45.0,40.0,-100.00,NNE,29,6.0,10.0,82,0.00,,,0.00,4.000000,,2013-01-28 13:23:00,
2013-01-28 08:33:00,45.0,40.0,-100.00,NNE,29,6.0,10.0,82,0.00,,,0.00,4.000000,,2013-01-28 13:33:00,
2013-01-28 08:42:00,45.0,40.0,-100.00,NNE,29,6.0,10.0,82,0.00,,,0.00,4.000000,,2013-01-28 13:42:00,
2013-01-28 08:52:00,45.0,40.0,-100.00,NNE,29,6.0,10.0,82,0.00,,,0.00,4.000000,,2013-01-28 13:52:00,
2013-01-28 09:23:00,46.0,41.0,-100.00,NNE,14,4.0,7.0,82,0.00,,,0.00,33.000000,,2013-01-28 14:23:00,
2013-01-28 09:33:00,46.0,41.0,-100.00,NNE,14,4.0,7.0,82,0.00,,,0.00,33.000000,,2013-01-28 14:33:00,
2013-01-28 09:43:00,46.0,41.0,-100.00,NNE,14,4.0,7.0,82,0.00,,,0.00,33.000000,,2013-01-28 14:43:00,
2013-01-28 09:52:00,46.0,41.0,-100.00,NNE,14,4.0,7.0,82,0.00,,,0.00,33.000000,,2013-01-28 14:52:00,
2013-01-28 10:24:00,48.0,41.0,-100.00,North,5,5.0,9.0,78,0.00,,,0.00,127.000000,,2013-01-28 15:24:00,
2013-01-28 10:33:00,48.0,41.0,-100.00,North,5,5.0,9.0,78,0.00,,,0.00,127.000000,,2013-01-28 15:33:00,
2013-01-28 10:43:00,48.0,41.0,-100.00,North,5,5.0,9.0,78,0.00,,,0.00,127.000000,,2013-01-28 15:43:00,
2013-01-28 10:53:00,48.0,41.0,-100.00,North,5,5.0,9.0,78,0.00,,,0.00,127.000000,,2013-01-28 15:53:00,
2013-01-28 11:22:00,52.0,43.0,-100.00,North,6,3.0,8.0,72,0.00,,,0.00,285.000000,,2013-01-28 16:22:00,
2013-01-28 11:33:00,52.0,43.0,-100.00,North,6,3.0,8.0,72,0.00,,,0.00,285.000000,,2013-01-28 16:33:00,
2013-01-28 11:43:00,52.0,43.0,-100.00,North,6,3.0,8.0,72,0.00,,,0.00,285.000000,,2013-01-28 16:43:00,
2013-01-28 11:52:00,52.0,43.0,-100.00,North,6,3.0,8.0,72,0.00,,,0.00,285.000000,,2013-01-28 16:52:00,
2013-01-28 12:23:00,57.0,46.0,-100.00,WSW,244,4.0,7.0,66,0.00,,,0.00,491.000000,,2013-01-28 17:23:00,
2013-01-28 12:33:00,57.0,46.0,-100.00,WSW,244,4.0,7.0,66,0.00,,,0.00,491.000000,,2013-01-28 17:33:00,
2013-01-28 12:42:00,57.0,46.0,-100.00,WSW,244,4.0,7.0,66,0.00,,,0.00,491.000000,,2013-01-28 17:42:00,
2013-01-28 12:52:00,57.0,46.0,-100.00,WSW,244,4.0,7.0,66,0.00,,,0.00,491.000000,,2013-01-28 17:52:00,
2013-01-28 13:23:00,62.0,48.0,-100.00,West,281,4.0,7.0,60,0.00,,,0.00,558.000000,,2013-01-28 18:23:00,
2013-01-28 13:33:00,62.0,48.0,-100.00,West,281,4.0,7.0,60,0.00,,,0.00,558.000000,,2013-01-28 18:33:00,
2013-01-28 13:42:00,62.0,48.0,-100.00,West,281,4.0,7.0,60,0.00,,,0.00,558.000000,,2013-01-28 18:42:00,
2013-01-28 13:52:00,62.0,48.0,-100.00,West,281,4.0,7.0,60,0.00,,,0.00,558.000000,,2013-01-28 18:52:00,
2013-01-28 14:22:00,64.0,49.0,-100.00,SSW,209,2.0,5.0,58,0.00,,,0.00,423.000000,,2013-01-28 19:22:00,
2013-01-28 14:33:00,64.0,49.0,-100.00,SSW,209,2.0,5.0,58,0.00,,,0.00,423.000000,,2013-01-28 19:33:00,
2013-01-28 14:42:00,64.0,49.0,-100.00,SSW,209,2.0,5.0,58,0.00,,,0.00,423.000000,,2013-01-28 19:42:00,
2013-01-28 14:52:00,64.0,49.0,-100.00,SSW,209,2.0,5.0,58,0.00,,,0.00,423.000000,,2013-01-28 19:52:00,
2013-01-28 15:22:00,68.0,52.0,-100.00,SW,236,3.0,4.0,57,0.00,,,0.00,347.000000,,2013-01-28 20:22:00,
2013-01-28 15:33:00,68.0,52.0,-100.00,SW,236,3.0,4.0,57,0.00,,,0.00,347.000000,,2013-01-28 20:33:00,
2013-01-28 15:43:00,68.0,52.0,-100.00,SW,236,3.0,4.0,57,0.00,,,0.00,347.000000,,2013-01-28 20:43:00,
2013-01-28 15:52:00,68.0,52.0,-100.00,SW,236,3.0,4.0,57,0.00,,,0.00,347.000000,,2013-01-28 20:52:00,
2013-01-28 16:23:00,67.0,54.0,-100.00,SSE,164,6.0,7.0,62,0.00,,,0.00,370.000000,,2013-01-28 21:23:00,
2013-01-28 16:33:00,67.0,54.0,-100.00,SSE,164,6.0,7.0,62,0.00,,,0.00,370.000000,,2013-01-28 21:33:00,
2013-01-28 16:43:00,67.0,54.0,-100.00,SSE,164,6.0,7.0,62,0.00,,,0.00,370.000000,,2013-01-28 21:43:00,
2013-01-28 16:52:00,67.0,54.0,-100.00,SSE,164,6.0,7.0,62,0.00,,,0.00,370.000000,,2013-01-28 21:52:00,
2013-01-28 17:23:00,64.0,54.0,-100.00,SSW,196,3.0,7.0,71,0.00,,,0.00,153.000000,,2013-01-28 22:23:00,
2013-01-28 17:33:00,64.0,54.0,-100.00,SSW,196,3.0,7.0,71,0.00,,,0.00,153.000000,,2013-01-28 22:33:00,
2013-01-28 17:42:00,64.0,54.0,-100.00,SSW,196,3.0,7.0,71,0.00,,,0.00,153.000000,,2013-01-28 22:42:00,
2013-01-28 17:52:00,64.0,54.0,-100.00,SSW,196,3.0,7.0,71,0.00,,,0.00,153.000000,,2013-01-28 22:52:00,
2013-01-28 18:22:00,60.0,53.0,-100.00,SE,144,3.0,5.0,78,0.00,,,0.00,40.000000,,2013-01-28 23:22:00,
2013-01-28 18:32:00,60.0,53.0,-100.00,SE,144,3.0,5.0,78,0.00,,,0.00,40.000000,,2013-01-28 23:32:00,
2013-01-28 18:42:00,60.0,53.0,-100.00,SE,144,3.0,5.0,78,0.00,,,0.00,40.000000,,2013-01-28 23:42:00,
2013-01-28 18:52:00,60.0,53.0,-100.00,SE,144,3.0,5.0,78,0.00,,,0.00,40.000000,,2013-01-28 23:52:00,
2013-01-28 19:22:00,56.0,52.0,-100.00,ESE,108,1.0,6.0,87,0.00,,,0.00,1.000000,,2013-01-29 00:22:00,
2013-01-28 19:33:00,56.0,52.0,-100.00,ESE,108,1.0,6.0,87,0.00,,,0.00,1.000000,,2013-01-29 00:33:00,
2013-01-28 19:42:00,56.0,52.0,-100.00,ESE,108,1.0,6.0,87,0.00,,,0.00,1.000000,,2013-01-29 00:42:00,
2013-01-28 19:52:00,56.0,52.0,-100.00,ESE,108,1.0,6.0,87,0.00,,,0.00,1.000000,,2013-01-29 00:52:00,
2013-01-28 20:23:00,55.0,53.0,-100.00,ESE,112,2.0,3.0,93,0.00,,,0.00,0.000000,,2013-01-29 01:23:00,
2013-01-28 20:32:00,55.0,53.0,-100.00,ESE,112,2.0,3.0,93,0.00,,,0.00,0.000000,,2013-01-29 01:32:00,
2013-01-28 20:42:00,55.0,53.0,-100.00,ESE,112,2.0,3.0,93,0.00,,,0.00,0.000000,,2013-01-29 01:42:00,
2013-01-28 20:52:00,55.0,53.0,-100.00,ESE,112,2.0,3.0,93,0.00,,,0.00,0.000000,,2013-01-29 01:52:00,
2013-01-28 21:22:00,52.0,51.0,-100.00,East,79,0.0,3.0,95,0.00,,,0.00,0.000000,,2013-01-29 02:22:00,
2013-01-28 21:33:00,52.0,51.0,-100.00,East,79,0.0,3.0,95,0.00,,,0.00,0.000000,,2013-01-29 02:33:00,
2013-01-28 21:42:00,52.0,51.0,-100.00,East,79,0.0,3.0,95,0.00,,,0.00,0.000000,,2013-01-29 02:42:00,
2013-01-28 21:52:00,52.0,51.0,-100.00,East,79,0.0,3.0,95,0.00,,,0.00,0.000000,,2013-01-29 02:52:00,
2013-01-28 22:22:00,52.0,51.0,-100.00,NE,46,0.0,3.0,97,0.00,,,0.00,0.000000,,2013-01-29 03:22:00,
2013-01-28 22:32:00,52.0,51.0,-100.00,NE,46,0.0,3.0,97,0.00,,,0.00,0.000000,,2013-01-29 03:32:00,
2013-01-28 22:42:00,52.0,51.0,-100.00,NE,46,0.0,3.0,97,0.00,,,0.00,0.000000,,2013-01-29 03:42:00,
2013-01-28 22:52:00,52.0,51.0,-100.00,NE,46,0.0,3.0,97,0.00,,,0.00,0.000000,,2013-01-29 03:52:00,
2013-01-28 23:22:00,50.0,49.0,-100.00,ENE,78,0.0,0.0,98,0.00,,,0.00,0.000000,,2013-01-29 04:22:00,
2013-01-28 23:32:00,50.0,49.0,-100.00,ENE,78,0.0,0.0,98,0.00,,,0.00,0.000000,,2013-01-29 04:32:00,
2013-01-28 23:42:00,50.0,49.0,-100.00,ENE,78,0.0,0.0,98,0.00,,,0.00,0.000000,,2013-01-29 04:42:00,
2013-01-28 23:52:00,50.0,49.0,-100.00,ENE,78,0.0,0.0,98,0.00,,,0.00,0.000000,,2013-01-29 04:52:00,